When you browse on this site, cookies collect data to enhance your experience and personalize the content and advertising you see.
Visit our Privacy Policy to learn more. By continuing to use the site, you agree to this use of cookies and data.
  • In Latvia
  • List of Countries
  • For 7 days
  • Water Temperature
  • Satellite Maps
  • Weather Map
  • Weather Widgets
  • user-avatar
    Login

    Hourly Weather Newcastle

    Today, 16 July, Tuesday

    Time Temperature Precipitation Wind Pressure Humidity
    00:00 +7°C° 0 mm 4 mps 763 mmHg 72%
    01:00 +7°C° 0 mm 5 mps 763 mmHg 73%
    02:00 +7°C° 0 mm 5 mps 763 mmHg 74%
    03:00 +7°C° 0 mm 5 mps 763 mmHg 75%
    04:00 +7°C° 0 mm 5 mps 762 mmHg 77%
    05:00 +6°C° 0 mm 5 mps 762 mmHg 78%
    06:00 +6°C° 0 mm 5 mps 763 mmHg 79%
    07:00 +6°C° 0 mm 5 mps 763 mmHg 81%
    08:00 +8°C° 0 mm 4 mps 763 mmHg 74%
    09:00 +11°C° 0 mm 4 mps 763 mmHg 67%
    10:00 +13°C° 0 mm 4 mps 763 mmHg 59%
    11:00 +14°C° 0 mm 4 mps 763 mmHg 54%
    12:00 +17°C° 0 mm 3 mps 762 mmHg 50%
    13:00 +19°C° 0 mm 2 mps 762 mmHg 45%
    14:00 +19°C° 0 mm 2 mps 761 mmHg 48%
    15:00 +20°C° 0 mm 1 mps 761 mmHg 51%
    16:00 +19°C° 0 mm 1 mps 761 mmHg 56%
    17:00 +18°C° 0 mm 1 mps 762 mmHg 59%
    18:00 +15°C° 0 mm 2 mps 762 mmHg 62%
    19:00 +13°C° 0 mm 3 mps 763 mmHg 64%
    20:00 +12°C° 0 mm 3 mps 763 mmHg 67%
    21:00 +11°C° 0 mm 4 mps 764 mmHg 69%
    22:00 +10°C° 0 mm 4 mps 764 mmHg 71%
    23:00 +8°C° 0 mm 4 mps 764 mmHg 74%

    Tomorrow, 17 July, Wednesday

    Time Temperature Precipitation Wind Pressure Humidity
    00:00 +8°C° 0 mm 4 mps 764 mmHg 78%
    01:00 +7°C° 0 mm 4 mps 763 mmHg 81%
    02:00 +7°C° 0 mm 4 mps 763 mmHg 82%
    03:00 +7°C° 0 mm 4 mps 763 mmHg 83%
    04:00 +8°C° 0 mm 3 mps 763 mmHg 84%
    05:00 +7°C° 0 mm 3 mps 763 mmHg 86%
    06:00 +7°C° 0 mm 3 mps 763 mmHg 87%
    07:00 +7°C° 0 mm 3 mps 764 mmHg 88%
    08:00 +9°C° 0 mm 3 mps 763 mmHg 80%
    09:00 +11°C° 0 mm 3 mps 763 mmHg 71%
    10:00 +13°C° 0 mm 3 mps 763 mmHg 62%
    11:00 +14°C° 0 mm 4 mps 762 mmHg 57%
    12:00 +15°C° 0 mm 4 mps 762 mmHg 53%
    13:00 +18°C° 0 mm 4 mps 761 mmHg 48%
    14:00 +18°C° 0 mm 4 mps 760 mmHg 49%
    15:00 +18°C° 0 mm 4 mps 760 mmHg 50%
    16:00 +17°C° 0 mm 5 mps 760 mmHg 51%
    17:00 +16°C° 0 mm 5 mps 760 mmHg 53%
    18:00 +15°C° 0 mm 5 mps 760 mmHg 55%
    19:00 +13°C° 0 mm 6 mps 761 mmHg 57%
    20:00 +11°C° 0 mm 6 mps 761 mmHg 59%
    21:00 +10°C° 0 mm 6 mps 761 mmHg 62%
    22:00 +9°C° 0 mm 6 mps 762 mmHg 65%
    23:00 +8°C° 0 mm 6 mps 762 mmHg 66%

    Day after tomorrow, 18 July, Thursday

    Time Temperature Precipitation Wind Pressure Humidity
    00:00 +8°C° 0 mm 6 mps 761 mmHg 67%
    01:00 +7°C° 0 mm 6 mps 761 mmHg 68%
    02:00 +7°C° 0 mm 6 mps 761 mmHg 68%
    03:00 +7°C° 0 mm 5 mps 761 mmHg 69%
    04:00 +7°C° 0 mm 4 mps 761 mmHg 70%
    05:00 +7°C° 0 mm 5 mps 761 mmHg 72%
    06:00 +6°C° 0 mm 5 mps 761 mmHg 74%
    07:00 +6°C° 0 mm 5 mps 762 mmHg 76%
    08:00 +8°C° 0 mm 5 mps 762 mmHg 70%
    09:00 +11°C° 0 mm 4 mps 762 mmHg 64%
    10:00 +12°C° 0 mm 4 mps 762 mmHg 58%
    11:00 +14°C° 0 mm 4 mps 762 mmHg 52%
    12:00 +15°C° 0 mm 4 mps 761 mmHg 46%
    13:00 +18°C° 0 mm 3 mps 761 mmHg 40%
    14:00 +18°C° 0 mm 3 mps 761 mmHg 42%
    15:00 +17°C° 0 mm 2 mps 761 mmHg 43%
    16:00 +17°C° 0 mm 2 mps 761 mmHg 45%
    17:00 +15°C° 0 mm 2 mps 761 mmHg 50%
    18:00 +13°C° 0 mm 2 mps 762 mmHg 55%
    19:00 +10°C° 0 mm 2 mps 762 mmHg 61%
    20:00 +10°C° 0 mm 2 mps 763 mmHg 60%
    21:00 +9°C° 0 mm 3 mps 763 mmHg 60%
    22:00 +8°C° 0 mm 4 mps 764 mmHg 60%
    23:00 +8°C° 0 mm 4 mps 764 mmHg 63%

    19 July, Friday

    Time Temperature Precipitation Wind Pressure Humidity
    00:00 +7°C° 0 mm 5 mps 764 mmHg 66%
    01:00 +6°C° 0 mm 5 mps 764 mmHg 69%
    02:00 +6°C° 0 mm 5 mps 764 mmHg 72%
    03:00 +5°C° 0 mm 5 mps 764 mmHg 74%
    04:00 +5°C° 0 mm 4 mps 764 mmHg 76%
    05:00 +5°C° 0 mm 4 mps 764 mmHg 77%
    06:00 +5°C° 0 mm 5 mps 765 mmHg 77%
    07:00 +5°C° 0 mm 5 mps 765 mmHg 78%
    08:00 +7°C° 0 mm 4 mps 765 mmHg 70%
    09:00 +10°C° 0 mm 4 mps 765 mmHg 63%
    10:00 +12°C° 0 mm 4 mps 765 mmHg 56%
    11:00 +13°C° 0 mm 3 mps 765 mmHg 52%
    12:00 +16°C° 0 mm 3 mps 764 mmHg 48%
    13:00 +18°C° 0 mm 2 mps 764 mmHg 43%
    14:00 +17°C° 0 mm 2 mps 764 mmHg 47%
    15:00 +17°C° 0 mm 2 mps 764 mmHg 50%
    16:00 +17°C° 0 mm 2 mps 764 mmHg 53%
    17:00 +15°C° 0 mm 1 mps 765 mmHg 60%
    18:00 +13°C° 0 mm 1 mps 766 mmHg 67%
    19:00 +11°C° 0 mm 1 mps 766 mmHg 74%
    20:00 +10°C° 0 mm 1 mps 767 mmHg 76%
    21:00 +10°C° 0 mm 1 mps 767 mmHg 77%
    22:00 +9°C° 0 mm 1 mps 767 mmHg 79%
    23:00 +9°C° 0 mm 1 mps 767 mmHg 80%

    20 July, Saturday

    Time Temperature Precipitation Wind Pressure Humidity
    00:00 +8°C° 0 mm 2 mps 767 mmHg 81%
    01:00 +7°C° 0 mm 2 mps 767 mmHg 82%
    02:00 +7°C° 0 mm 2 mps 767 mmHg 83%
    03:00 +7°C° 0 mm 2 mps 767 mmHg 85%
    04:00 +6°C° 0 mm 2 mps 766 mmHg 86%
    05:00 +6°C° 0 mm 2 mps 767 mmHg 87%
    06:00 +6°C° 0 mm 2 mps 767 mmHg 88%
    07:00 +5°C° 0 mm 2 mps 767 mmHg 89%
    08:00 +8°C° 0 mm 2 mps 767 mmHg 78%
    09:00 +12°C° 0 mm 2 mps 767 mmHg 67%
    10:00 +15°C° 0 mm 2 mps 767 mmHg 56%
    11:00 +16°C° 0 mm 2 mps 766 mmHg 52%
    12:00 +18°C° 0 mm 3 mps 765 mmHg 47%
    13:00 +19°C° 0 mm 3 mps 764 mmHg 43%
    14:00 +19°C° 0 mm 3 mps 764 mmHg 45%
    15:00 +18°C° 0 mm 2 mps 763 mmHg 47%
    16:00 +18°C° 0 mm 2 mps 763 mmHg 49%
    17:00 +16°C° 0 mm 2 mps 764 mmHg 53%
    18:00 +14°C° 0 mm 2 mps 764 mmHg 57%
    19:00 +12°C° 0 mm 2 mps 765 mmHg 60%
    20:00 +10°C° 0 mm 2 mps 765 mmHg 63%
    21:00 +10°C° 0 mm 2 mps 765 mmHg 66%
    22:00 +9°C° 0 mm 2 mps 765 mmHg 69%
    23:00 +8°C° 0 mm 3 mps 764 mmHg 70%

    21 July, Sunday

    Time Temperature Precipitation Wind Pressure Humidity
    00:00 +8°C° 0 mm 3 mps 764 mmHg 71%
    01:00 +7°C° 0 mm 3 mps 764 mmHg 72%
    02:00 +7°C° 0 mm 3 mps 764 mmHg 73%
    03:00 +7°C° 0 mm 3 mps 763 mmHg 73%
    04:00 +7°C° 0 mm 3 mps 763 mmHg 73%
    05:00 +5°C° 0 mm 3 mps 763 mmHg 74%
    06:00 +5°C° 0 mm 3 mps 764 mmHg 75%
    07:00 +5°C° 0 mm 3 mps 764 mmHg 76%
    08:00 +9°C° 0 mm 3 mps 764 mmHg 67%
    09:00 +12°C° 0 mm 3 mps 764 mmHg 59%
    10:00 +16°C° 0 mm 3 mps 763 mmHg 50%
    11:00 +18°C° 0 mm 4 mps 763 mmHg 48%
    12:00 +19°C° 0 mm 4 mps 762 mmHg 46%
    13:00 +21°C° 0 mm 4 mps 761 mmHg 44%
    14:00 +21°C° 0 mm 4 mps 761 mmHg 46%
    15:00 +20°C° 0 mm 4 mps 761 mmHg 48%
    16:00 +20°C° 0 mm 3 mps 761 mmHg 50%
    17:00 +18°C° 0 mm 3 mps 761 mmHg 56%
    18:00 +16°C° 0 mm 3 mps 762 mmHg 61%
    19:00 +14°C° 0 mm 3 mps 762 mmHg 66%
    20:00 +13°C° 0 mm 3 mps 762 mmHg 70%
    21:00 +12°C° 0 mm 3 mps 763 mmHg 74%
    22:00 +11°C° 0 mm 3 mps 763 mmHg 77%
    23:00 +11°C° 0 mm 3 mps 763 mmHg 80%
    Show more